Location: Brompton
(51.4000°N, 0.5333°E)
Time: 16:45:14
(UTC+00:00)

Nadezhda 1 Rocket - Pass Details

Date: 11 May 2021
Orbit: 940 x 1006 km, 83.0° (Epoch: 23 June)

Event Time Altitude Azimuth Distance (km) Brightness Sun altitude
Exits shadow 21:19:51 16° 155° (SSE) 2,321 5.4 -12.7°
Maximum altitude 21:24:32 45° 90° (E) 1,316 4.4 -13.2°
Drops below altitude 10° 21:30:25 10° 20° (NNE) 2,726 6.8 -13.7°
Sets 21:33:00 0° 14° (NNE) 3,667 7.7 -13.9°
